[[{"header":{"parameterUnit":"m.s-1","parameterCategory":1,"la1":30.2991,"la2":30.254,"lo1":-89.0895,"lo2":-89.0444,"dy":0.0017,"dx":0.0017,"nx":28,"ny":28,"refTime":"2025-02-04T09:00:00:Z","depth":0,"parameterNumber":2,"parameterNumberName":"U-component_of_WINDS"},"data":[0,0,0,0,0,0,0,0,0,0,0,0,0,0,0,0,0,0,0,0,0,0,0,0,0,0,0,0,0,0,0,0,0,0,0,0,0,0,0,0,0,0,0,0,0,0,0,0,0,0,0,0,0,0,0,0,0,0,0.0674,0.0675,0,0.0743,0.0743,0.0744,0.0786,0.0786,0.0786,0.0786,0.0854,0.0856,0.0858,0,0,0,0,0,0,0,0,0,0,0,0,0,0.0578,0.058,0.0674,0.0675,0.0676,0.0742,0.0743,0.0744,0.0786,0.0786,0.0786,0.0787,0.0854,0.0856,0.0858,0,0,0,0,0,0,0,0,0,0,0,0,0,0.063,0.058,0.0674,0.0705,0.0708,0.0742,0.0743,0.0745,0.0786,0.0786,0.0786,0.0787,0.0853,0.0856,0.0858,0.0867,0,0,0.0865,0.0866,0,0,0,0,0,0,0,0,0.0627,0.0634,0.0699,0.0703,0.0707,0.0756,0.0735,0.0785,0.0786,0.0756,0.0786,0.0787,0.0821,0.0826,0.0838,0.087,0.0873,0.0866,0.0867,0.0868,0.0869,0,0,0,0,0,0,0,0.0624,0.0631,0.0701,0.07,0.0705,0.0715,0.0722,0.0744,0.0786,0.0759,0.0762,0.077,0.0823,0.0836,0.084,0.0874,0.0866,0.0868,0.0869,0.087,0.0916,0.0916,0,0,0,0,0,0,0.0616,0.0628,0.0699,0.0703,0.0667,0.0716,0.0725,0.074,0.0786,0.0793,0.0769,0.0771,0.0832,0.0837,0.0843,0.0857,0.0868,0.087,0.0872,0.0916,0.0916,0.0916,0,0,0,0,0,0,0.0613,0.0621,0.0696,0.0667,0.0677,0.0717,0.0734,0.0741,0.0754,0.0794,0.0801,0.0775,0.0832,0.084,0.0861,0.0859,0.0872,0.0874,0.0916,0.0916,0.0916,0.0883,0,0,0,0,0,0,0.061,0.062,0.0624,0.0666,0.0678,0.0713,0.0734,0.0742,0.0758,0.0761,0.0801,0.0808,0.0833,0.0857,0.0863,0.0863,0.0876,0.0917,0.0916,0.0916,0.0885,0.0882,0.088,0,0,0,0,0,0.0607,0.0612,0.0624,0.0633,0.0684,0.0713,0.072,0.0749,0.0758,0.0762,0.0788,0.0807,0.0858,0.0859,0.0866,0.0867,0.0917,0.0916,0.0916,0.0886,0.0882,0.088,0,0,0,0,0,0,0.0568,0.0618,0.0632,0.0651,0.0678,0.072,0.0726,0.0745,0.0769,0.0771,0.0806,0.0814,0.0832,0.0851,0.0851,0.0878,0.089,0.0891,0.0864,0.0862,0.0859,0.0854,0.0878,0,0,0,0,0,0.0562,0.0582,0.0624,0.0637,0.0649,0.0685,0.0699,0.072,0.0748,0.0759,0.0787,0.0813,0.0836,0.085,0.0872,0.0887,0.0897,0.0892,0.0889,0.0887,0.0887,0.0897,0.0896,0.0914,0.0914,0.0914,0,0,0.0549,0.0579,0.0589,0.063,0.0653,0.0672,0.0695,0.0714,0.0729,0.0762,0.0784,0.0805,0.0837,0.0855,0.0865,0.0872,0.0884,0.0886,0.0884,0.0886,0.0897,0.0895,0.0893,0.0914,0.0914,0.0914,0,0,0.0536,0.056,0.0574,0.0597,0.0631,0.0655,0.0658,0.0698,0.0714,0.0736,0.0762,0.078,0.0817,0.0839,0.0855,0.085,0.0869,0.0857,0.0843,0.0853,0.0851,0.085,0.0849,0.0848,0.0857,0.0857,0.0857,0,0.0515,0.0546,0.0578,0.0597,0.0614,0.0646,0.066,0.068,0.072,0.0731,0.0738,0.0787,0.081,0.0835,0.0833,0.0845,0.085,0.0853,0.0849,0.0848,0.0848,0.0847,0.0847,0.0855,0.0856,0.0856,0.0856,0,0.052,0.0541,0.0548,0.0587,0.0604,0.062,0.0654,0.0668,0.0687,0.071,0.0733,0.0763,0.0792,0.0799,0.0817,0.0826,0.083,0.0843,0.0856,0.0844,0.0844,0.0844,0.0853,0.0854,0.0854,0.0854,0,0,0.0484,0.0541,0.0543,0.0561,0.0602,0.0619,0.0636,0.0666,0.0677,0.0703,0.0719,0.075,0.0763,0.0781,0.0802,0.081,0.0805,0.0822,0.0824,0.0819,0.0817,0.0808,0.0807,0.0817,0.0817,0.0817,0.0815,0,0.0478,0.0511,0.0541,0.0563,0.0583,0.0614,0.0629,0.0655,0.0677,0.0697,0.0721,0.0743,0.0757,0.0769,0.0778,0.0804,0.0806,0.0804,0.0832,0.0833,0.0824,0.0807,0.0797,0.0793,0.0815,0.0815,0.0815,0,0.0475,0.0501,0.0526,0.0565,0.0574,0.0588,0.0617,0.0636,0.0666,0.0682,0.0702,0.0724,0.0744,0.0754,0.0782,0.078,0.0793,0.0807,0.0808,0.0812,0.0824,0.0811,0.0792,0.0792,0.0815,0.0815,0.0815,0,0.0447,0.0488,0.0509,0.0523,0.0569,0.0578,0.0598,0.0628,0.0645,0.067,0.0681,0.0708,0.0723,0.0744,0.0772,0.0777,0.0797,0.081,0.081,0.081,0.0814,0.0813,0.0797,0.0821,0.0821,0.0821,0.0821,0,0.0437,0.0451,0.0497,0.051,0.0527,0.056,0.0575,0.0597,0.0625,0.0642,0.0669,0.0685,0.0721,0.0741,0.0764,0.0783,0.0789,0.0802,0.0808,0.08,0.0799,0.081,0.0811,0.0821,0.0821,0.0821,0.0821,0,0.0409,0.0441,0.0465,0.0507,0.0518,0.0529,0.0564,0.0577,0.0601,0.0622,0.0629,0.0666,0.0691,0.0721,0.0755,0.0771,0.0788,0.0797,0.0778,0.0782,0.0781,0.0781,0.0772,0.0773,0.0795,0.0794,0.0794,0,0.0401,0.0413,0.0456,0.047,0.0489,0.0511,0.0528,0.0561,0.0577,0.0613,0.0622,0.0649,0.0672,0.071,0.074,0.0766,0.0776,0.0771,0.078,0.0772,0.0777,0.0776,0.0777,0.0769,0.0768,0.0768,0.0768,0,0.0384,0.0399,0.0422,0.0452,0.0471,0.0495,0.0521,0.053,0.0569,0.0585,0.0611,0.063,0.0665,0.0691,0.0722,0.0741,0.0761,0.0765,0.0766,0.0759,0.0748,0.0754,0.0772,0.0765,0.0765,0.0765,0.0765,0.0766,0.0366,0.0378,0.0411,0.0437,0.0459,0.0483,0.0497,0.0523,0.0546,0.0578,0.0595,0.0621,0.0651,0.0694,0.0713,0.0733,0.074,0.0742,0.0743,0.0743,0.0741,0.0744,0.0738,0.0739,0.0739,0.0739,0.0739,0,0.0351,0.0373,0.0396,0.0432,0.0452,0.0469,0.0498,0.0513,0.0536,0.0563,0.0585,0.0615,0.0641,0.0673,0.0701,0.0711,0.0721,0.0717,0.0717,0.0721,0.0733,0.0729,0.0709,0.0709,0.0709,0.0709,0.0709,0.0709,0.0345,0.0367,0.0386,0.0419,0.0441,0.0467,0.0483,0.0504,0.0526,0.0558,0.058,0.0601,0.063,0.066,0.0685,0.0693,0.0702,0.0696,0.0708,0.0718,0.072,0.0723,0.072,0.0698,0.0698,0.0695,0.0695,0.0695]},{"header":{"parameterUnit":"m.s-1","parameterCategory":1,"la1":30.2991,"la2":30.254,"lo1":-89.0895,"lo2":-89.0444,"dy":0.0017,"dx":0.0017,"nx":28,"ny":28,"refTime":"2025-02-04T09:00:00:Z","depth":0,"parameterNumber":3,"parameterNumberName":"V-component_of_WINDS"},"data":[0,0,0,0,0,0,0,0,0,0,0,0,0,0,0,0,0,0,0,0,0,0,0,0,0,0,0,0,0,0,0,0,0,0,0,0,0,0,0,0,0,0,0,0,0,0,0,0,0,0,0,0,0,0,0,0,0,0,0.4862,0.4862,0,0.4827,0.4827,0.4826,0.4792,0.4791,0.4791,0.479,0.4753,0.4753,0.4752,0,0,0,0,0,0,0,0,0,0,0,0,0,0.4898,0.4898,0.4862,0.4862,0.4861,0.4827,0.4827,0.4826,0.4792,0.4791,0.4791,0.479,0.4754,0.4753,0.4752,0,0,0,0,0,0,0,0,0,0,0,0,0,0.4875,0.4898,0.4862,0.484,0.4838,0.4827,0.4827,0.4826,0.4792,0.4791,0.4791,0.479,0.4754,0.4753,0.4752,0.476,0,0,0.4749,0.4749,0,0,0,0,0,0,0,0,0.4876,0.4873,0.4844,0.4842,0.4839,0.4813,0.4826,0.4804,0.4792,0.4809,0.479,0.479,0.4774,0.4771,0.4766,0.4758,0.4757,0.4749,0.4749,0.4749,0.4748,0,0,0,0,0,0,0,0.4878,0.4875,0.4848,0.4843,0.484,0.4831,0.4827,0.4821,0.4796,0.4808,0.4805,0.4801,0.4772,0.4767,0.4765,0.4756,0.4749,0.4749,0.4748,0.4748,0.4754,0.4754,0,0,0,0,0,0,0.4883,0.4876,0.4849,0.4847,0.4856,0.4831,0.4827,0.4822,0.4796,0.4791,0.4802,0.48,0.4769,0.4766,0.4763,0.4772,0.4749,0.4748,0.4747,0.4753,0.4754,0.4754,0,0,0,0,0,0,0.4884,0.4881,0.4851,0.4861,0.4856,0.4831,0.4826,0.4822,0.4816,0.4791,0.4786,0.4802,0.4768,0.4765,0.4761,0.477,0.4747,0.4747,0.4752,0.4753,0.4754,0.4788,0,0,0,0,0,0,0.4885,0.4881,0.4885,0.4861,0.4856,0.485,0.4827,0.4821,0.4815,0.4812,0.479,0.4785,0.4767,0.4763,0.4761,0.4768,0.4746,0.4751,0.4753,0.4754,0.4786,0.479,0.4793,0,0,0,0,0,0.4886,0.4895,0.4885,0.4882,0.486,0.485,0.4847,0.4827,0.4816,0.4819,0.4803,0.4786,0.4769,0.4763,0.476,0.4767,0.4751,0.4752,0.4754,0.4784,0.4789,0.4793,0,0,0,0,0,0,0.492,0.4892,0.488,0.4882,0.4869,0.4845,0.4848,0.4833,0.4822,0.482,0.4794,0.4789,0.4789,0.4778,0.4771,0.4774,0.4757,0.4758,0.4782,0.4786,0.479,0.4793,0.4745,0,0,0,0,0,0.4928,0.4923,0.4898,0.4902,0.4896,0.4873,0.4868,0.4854,0.4839,0.4833,0.4817,0.4803,0.4794,0.4789,0.478,0.4783,0.4778,0.4787,0.4791,0.4794,0.4795,0.4796,0.48,0.4759,0.4759,0.4759,0,0,0.4943,0.4927,0.4926,0.4908,0.4897,0.4892,0.4869,0.4865,0.4861,0.4832,0.4829,0.4816,0.4799,0.4799,0.4798,0.4789,0.4805,0.4796,0.4799,0.4798,0.4798,0.4802,0.4806,0.476,0.476,0.476,0,0,0.497,0.4957,0.4959,0.4948,0.493,0.4915,0.4915,0.4893,0.4884,0.4879,0.4858,0.4852,0.4838,0.4827,0.4819,0.4841,0.4825,0.4838,0.4858,0.4859,0.4863,0.4865,0.4874,0.4877,0.484,0.484,0.484,0,0.4992,0.4984,0.4962,0.4959,0.4952,0.4926,0.4928,0.4918,0.4898,0.4893,0.4884,0.4865,0.4852,0.4849,0.4854,0.4849,0.4848,0.4841,0.4864,0.4867,0.4869,0.4876,0.4879,0.4842,0.4841,0.4841,0.4841,0,0.5012,0.5007,0.5011,0.4993,0.4986,0.4985,0.4962,0.4958,0.4944,0.4929,0.4925,0.4907,0.4894,0.4892,0.4878,0.4888,0.4883,0.4869,0.4852,0.4875,0.4882,0.4884,0.4844,0.4843,0.4843,0.4842,0,0,0.506,0.5029,0.5031,0.5022,0.5001,0.4996,0.4994,0.4982,0.4979,0.4965,0.4963,0.4951,0.4938,0.493,0.4914,0.4915,0.4933,0.4901,0.49,0.4908,0.4943,0.4954,0.4958,0.4922,0.4923,0.4923,0.4945,0,0.5083,0.5079,0.5059,0.506,0.5055,0.503,0.5028,0.5014,0.5,0.4994,0.4978,0.497,0.4953,0.4948,0.4948,0.4931,0.494,0.4929,0.492,0.492,0.4926,0.4961,0.4973,0.4995,0.4947,0.4947,0.4948,0,0.5111,0.51,0.5101,0.5079,0.5076,0.5075,0.5062,0.5056,0.5039,0.5029,0.5019,0.5001,0.4997,0.4981,0.4975,0.4968,0.4963,0.4954,0.4954,0.4953,0.4936,0.4962,0.5001,0.5005,0.4951,0.4951,0.4951,0,0.5147,0.5132,0.5131,0.5124,0.5098,0.5098,0.5087,0.507,0.5064,0.5052,0.5048,0.5035,0.5029,0.5019,0.4998,0.4988,0.4995,0.4976,0.4986,0.4987,0.499,0.499,0.5029,0.4985,0.4985,0.4985,0.4984,0,0.5176,0.5178,0.5146,0.5146,0.5147,0.5123,0.5125,0.5111,0.5096,0.5092,0.5069,0.5066,0.5038,0.5031,0.5014,0.5012,0.5009,0.5,0.4996,0.5003,0.5004,0.5,0.4998,0.4985,0.4985,0.4985,0.4985,0,0.5217,0.5196,0.5193,0.5169,0.5163,0.5165,0.5144,0.5142,0.5126,0.5121,0.5119,0.5094,0.5085,0.5063,0.5047,0.5036,0.5039,0.503,0.5045,0.5042,0.5053,0.5053,0.5092,0.5096,0.5048,0.5049,0.5049,0,0.5237,0.5238,0.5214,0.521,0.52,0.5194,0.5187,0.5163,0.5157,0.5138,0.5138,0.5127,0.5118,0.5104,0.5084,0.5072,0.5064,0.5078,0.5062,0.5069,0.5065,0.5066,0.5066,0.5082,0.5083,0.5084,0.5084,0,0.5276,0.5266,0.5257,0.5245,0.5238,0.5227,0.5215,0.5213,0.5186,0.518,0.5171,0.5163,0.5147,0.5137,0.5122,0.511,0.5093,0.5089,0.5091,0.5099,0.5107,0.5103,0.5055,0.5089,0.5088,0.5088,0.5088,0.5087,0.5308,0.5308,0.5291,0.5282,0.527,0.526,0.5257,0.524,0.5232,0.5218,0.5204,0.5196,0.5179,0.5157,0.5146,0.5139,0.513,0.5133,0.5133,0.5135,0.5138,0.5107,0.5136,0.5136,0.5136,0.5136,0.5136,0,0.5347,0.5334,0.5326,0.531,0.5303,0.5287,0.5273,0.5268,0.5262,0.5247,0.5238,0.5227,0.5216,0.5195,0.5183,0.5181,0.5173,0.5179,0.5179,0.5177,0.5146,0.5147,0.5186,0.5186,0.5186,0.5186,0.5186,0.5186,0.5366,0.5365,0.5352,0.5345,0.5332,0.5324,0.5317,0.5307,0.5295,0.5284,0.5276,0.5262,0.5245,0.5231,0.522,0.5214,0.5211,0.522,0.5211,0.5184,0.5179,0.5174,0.5175,0.5219,0.5219,0.5242,0.5242,0.5243]}]]